Zurück zum Katalog

STARLINK-5482

AktivKommunikationSSO
NORAD 56358·PAYLOAD·🇺🇸 United States

Gestartet Apr 27, 2023 von Vandenberg Space Force Base

Loading…

Nächste Überflüge (nächste 24 Stunden)

TLE

AktuellSource: CelesTrak SupGP

Epoche: Sep 14, 2026, 22:25 UTC

1 56358C 23058AT  26257.93451389  .00421560  00000+0  25571-1 0  2574
2 56358  97.2853 252.1235 0001970  89.0555 333.4009 15.10417502    11

Verfolge STARLINK-5482 in Echtzeit mit AllMySat

Download on the App Store